Flag Weather past 2 weeks in Memphis, Tennessee, U.S.A.

Now
67 °F

Sunny.


Feels Like: 67 °F
Forecast: 45 / 67 °F
Wind: No wind

Location: Memphis International Airport

Current Time: Oct 30, 2014 at 2:08:49 PM

Latest Report: Oct 30, 2014 at 12:54 PM


Visibility: 10 mi

Pressure: 30.13 "Hg

Humidity: 36%

Dew point: 39 °F

Location of MemphisLocation

Historic Weather in Memphis — Graph

°F

Memphis temperature yesterday

Maximum temperature yesterday: 70 °F (at 1:54 PM)
Minimum temperature yesterday: 49 °F (at 11:54 PM)
Average temperature yesterday: 58 °F

Past Weeks' High & Low Weather Summary

 TemperatureHumidityPressure
High85 °F (Oct 26, 1:54 PM)94% (Oct 26, 2:54 AM)30.25 "Hg (Oct 26, 2:54 AM)
Low45 °F (Oct 23, 6:54 AM)33% (Oct 21, 2:54 PM)29.84 "Hg (Oct 17, 3:54 AM)
Average63 °F67%30.05 "Hg
* Reported Oct 15 12:01 PM — Oct 30 12:54 PM, Memphis, Weather by CustomWeather, © 2014

Note: Actual official high and low records may vary slightly from our data, if they occured in-between our weather recording intervals... More about our weather records

Advertising

Memphis weather history for previous 24 hours

 ConditionsComfort  
Time TempWeatherWind HumidityBarometerVisibility
12:54 PM
Oct 30
67 °FSunny.No wind36%30.13 "Hg10 mi
11:54 AM64 °FSunny.No wind40%30.15 "Hg10 mi
10:54 AM61 °FPassing clouds.No wind50%30.16 "Hg10 mi
9:54 AM56 °FPassing clouds.5 mph60%30.16 "Hg10 mi
8:54 AM50 °FSunny.7 mph71%30.17 "Hg10 mi
7:54 AM46 °FPassing clouds.3 mph79%30.17 "Hg10 mi
6:54 AM46 °FClear.No wind79%30.15 "Hg10 mi
5:54 AM45 °FClear.No wind82%30.15 "Hg10 mi
4:54 AM48 °FClear.3 mph74%30.14 "Hg10 mi
3:54 AM50 °FClear.5 mph71%30.13 "Hg10 mi
2:54 AM46 °FClear.No wind89%30.13 "Hg10 mi
1:54 AM48 °FClear.No wind89%30.14 "Hg10 mi
12:54 AM48 °FClear.No wind86%30.14 "Hg10 mi
11:54 PM
Oct 29
49 °FClear.No wind86%30.14 "Hg10 mi
10:54 PM52 °FClear.No wind83%30.14 "Hg10 mi
9:54 PM53 °FClear.No wind77%30.14 "Hg10 mi
8:54 PM53 °FClear.No wind77%30.14 "Hg10 mi
7:54 PM57 °FClear.No wind64%30.14 "Hg10 mi
6:54 PM63 °FClear.No wind43%30.14 "Hg10 mi
5:54 PM64 °FPassing clouds.7 mph41%30.13 "Hg10 mi
4:54 PM68 °FSunny.7 mph39%30.13 "Hg10 mi
3:54 PM69 °FPassing clouds.8 mph38%30.13 "Hg10 mi
2:54 PM70 °FPassing clouds.7 mph34%30.14 "Hg10 mi
Weather by CustomWeather, © 2014

See weather overviewHow to use our weather pages